Powrót do katalogu

SL-3 R/B

AktywnyPO
NORAD 6393·ROCKET BODY·🇷🇺 Russia

Wystrzelony Mar 20, 1973 z Plesetsk Cosmodrome

Loading…

Następne Przeloty (najbliższe 24 godziny)

TLE

ŚwieżeSource: Space-Track

Epoka: Sep 14, 2026, 08:07 UTC

1 06393U 73015B   26257.33864012  .00000037  00000-0  14570-4 0  9997
2 06393  81.2538 293.1547 0058785 150.4542 209.9970 14.05448841740854

Śledź SL-3 R/B w czasie rzeczywistym z AllMySat

Download on the App Store